This demonstration page uses our WeatherBlox Daily Observations layout. Learn more.

Left ArrowRight Arrow

Hourly Observations for November 29, 2022

Temp ( °F °C ) Dew Point ( °F °C ) Humidity (%) Winds ( mph kmh ) Pressure ( in mb ) Visibility ( mi km ) Precip ( " mm )
12:53 am 00:53 Clear 45 7.2 30 -1.1 55 55 SW 9 15 29.67 1005 10 16 0.00 0.00
1:53 am 01:53 Clear 47 8.3 31 -0.6 53 53 S 8 13 29.66 1004 10 16 0.00 0.00
2:53 am 02:53 Clear 41 5 33 0.6 73 73 SE 5 7 29.65 1004 10 16 0.00 0.00
3:53 am 03:53 Clear 40 4.4 34 1.1 79 79 SSE 7 11 29.65 1004 10 16 0.00 0.00
4:53 am 04:53 Clear 38 3.3 34 1.1 85 85 ENE 5 7 29.67 1005 10 16 0.00 0.00
5:53 am 05:53 Clear 40 4.4 34 1.1 79 79 SE 6 9 29.67 1005 10 16 0.00 0.00
6:53 am 06:53 Clear 38 3.3 33 0.6 82 82 SSE 6 9 29.71 1006 10 16 0.00 0.00
7:53 am 07:53 Sunny 37 2.8 33 0.6 85 85 S 5 7 29.72 1007 10 16 0.00 0.00
8:42 am 08:42 Sunny 55 12.8 29 -1.7 36 36 SW 16 26 29.73 1007 10 16 0.00 0.00
8:53 am 08:53 Sunny 57 13.9 29 -1.7 34 34 SW 12 19 29.72 1006 10 16 0.00 0.00
9:53 am 09:53 Sunny 63 17.2 26 -3.3 24 24 SW 16 26 29.72 1007 10 16 0.00 0.00
10:53 am 10:53 Sunny 66 18.9 25 -3.9 21 21 WSW 18 30 29.73 1007 10 16 0.00 0.00
11:53 am 11:53 Sunny 69 20.6 24 -4.4 18 18 WSW 25 41 29.71 1006 10 16 0.00 0.00
12:53 pm 12:53 Sunny 71 21.7 24 -4.4 17 17 W 25 41 29.71 1006 10 16 0.00 0.00
1:53 pm 13:53 Sunny 72 22.2 23 -5 16 16 WSW 25 41 29.69 1006 10 16 0.00 0.00
2:53 pm 14:53 Sunny 73 22.8 22 -5.6 14 14 W 25 41 29.70 1006 10 16 0.00 0.00
3:53 pm 15:53 Sunny 72 22.2 22 -5.6 15 15 W 25 41 29.72 1007 10 16 0.00 0.00
4:53 pm 16:53 Sunny 71 21.7 22 -5.6 16 16 W 22 35 29.75 1007 10 16 0.00 0.00
5:53 pm 17:53 Clear 66 18.9 25 -3.9 21 21 W 14 22 29.79 1009 10 16 0.00 0.00
6:53 pm 18:53 Clear 58 14.4 29 -1.7 33 33 W 3 6 29.85 1011 10 16 0.00 0.00
7:53 pm 19:53 Clear 53 11.7 32 0 44 44 WSW 5 7 29.90 1013 10 16 0.00 0.00
8:53 pm 20:53 Clear 49 9.4 34 1.1 56 56 ESE 3 6 29.92 1013 10 16 0.00 0.00
9:53 pm 21:53 Clear 46 7.8 34 1.1 63 63 N 6 9 29.94 1014 10 16 0.00 0.00
10:53 pm 22:53 Clear 44 6.7 34 1.1 67 67 VRB 7 11 30.00 1016 10 16 0.00 0.00
11:53 pm 23:53 Clear 43 6.1 30 -1.1 60 60 NNE 18 30 30.06 1018 10 16 0.00 0.00

Powered by AerisWeather